EHI
0 0 0 0 0 0 0 0 0 0 0 0 0 0 0 0 0 0 0 0 0 0 0 0 0 0 0 0 0 0 0 0 0 0 0 0 0 0 0 0 0 0 0
0 0 0 0 0 0 0 0 0 0 0 0 0 0 0 0 0 0 0 0 0 0 0 0 0 0 0 0 0 0 0 0 0 0 0 0 0 0 0 0 0 0 0
0 0 0 0 0 0 0 0 0 0 0 0 0 0 0 0 0 0 0 0 0 0 0 0 0 0 0 0 0 0 0 0 0 0 0 0 0 0 0 0 0 0 0
0 0 0 0 0 0 0 0 0 0 0 0 0 0 0 0 0 0 0 0 0 0 0 0 0 0 0 0 0 0 0 0 0 0 0 0 0 0 0 0 0 0 0
0 0 0 0 0 0 0 0 0 0 0 0 0 0 0 0 0 0 0 0 0 0 0 0 0 0 0 0 0 0 0 0 0 0 0 0 0 0 0 0 0 0 0
0 0 0 0 0 0 0 0 0 0 0 0 0 0 0 0 0 0 0 0 0 0 0 0 0 0 0 0 0 0 0 0 0 0 0 0 0 0 0 0 0 0 0
0 0 0 0 0 0 0 0 0 0 0 0 0 0 0 0 0 0 0 0 0 0 0 0 0 0 0 0 0 0 0 0 0 0 0 0 0 0 0 0 0 0 0
0 0 0 0 0 0 0 0 0 0 0 0 0 0 0 0 0 0 0 0 0 0 0 0 0 0 0 0 0 0 0 0 0 0 0 0 0 0 0 0 0 0 0
0 0 0 0 0 0 0 0 0 0 0 0 0 0 0 0 0 0 0 0 0 0 0 0 0 0 0 0 0 0 0 0 0 0 0 0 0 0 0 0 0 0 0
0 0 0 0 0 0 0 0 0 0 0 0 0 0 0 0 0 0 0 0 0 0 0 0 0 0 0 0 0 0 0 0 0 0 0 0 0 0 0 0 0 0 0
0 0 0 0 0 0 0 0 0 0 0 0 0 0 0 0 0 0 0 0 0 0 0 0 0 0 0 0 0 0 0 0 0 0 0 0 0 0 0 0 0 0 0
0 0 0 0 0 0 0 0 0 0 0 0 0 0 0 0 0 0 0 0 0 0 0 0 0 0 0 0 0 0 0 0 0 0 0 0 0 0 0 0 0 0 0
0 0 0 0 0 0 0 0 0 0 0 0 0 0 0 0 0 0 0 0 0 0 0 0 0 0 0 0 0 0 0 0 0 0 0 0 0 0 0 0 0 0 0
0 0 0 0 0 0 0 0 0 0 0 0 0 0 0 0 0 0 0 0 0 0 0 0 0 0 0 0 0 0 0 0 0 0 0 0 0 0 0 0 0 0 0
0 0 0 0 0 0 0 0 0 0 0 0 0 0 0 0 0 0 0 0 0 0 0 0 0 0 0 0 0 0 0 0 0 0 0 0 0 0 0 0 0 0 0
0 0 0 0 0 0 0 0 0 0 0 0 0 0 0 0 0 0 0 0 0 0 0 0 0 0 0 0 0 0 0 0 0 0 0 0 0 0 0 0 0 0 0
0 0 0 0 0 0 0 0 0 0 0 0 0 0 0 0 0 0 0 0 0 0 0 0 0 0 0 0 0 0 0 0 0 0 0 0 0 0 0 0 0 0 0
0 0 0 0 0 0 0 0 0 0 0 0 0 0 0 0 0 0 0 0 0 0 0 0 0 0 0 0 0 0 0 0 0 0 0 0 0 0 0 0 0 0 0
0 0 0 0 0 0 0 0 0 0 0 0 0 0 0 0 0 0 0 0 0 0 0 0 0 0 0 0 0 0 0 0 0 0 0 0 0 0 0 0 0 0 0
0 0 0 0 0 0 0 0 0 0 0 0 0 0 0 0 0 0 0 0 0 0 0 0 0 0 0 0 0 0 0 0 0 0 0 0 0 0 0 0 0 0 0
0 0 0 0 0 0 0 0 0 0 0 0 0 0 0 0 0 0 0 0 0 0 0 0 0 0 0 0 0 0 0 0 0 0 0 0 0 0 0 0 0 0 0
0 0 0 0 0 0 0 0 0 0 0 0 0 0 0 0 0 0 0 0 0 0 0 0 0 0 0 0 0 0 0 0 0 0 0 0 0 0 0 0 0 0 0
0 0 0 0 0 0 0 0 0 0 0 0 0 0 0 0 0 0 0 0 0 0 0 0 0 0 0 0 0 0 0 0 0 0 0 0 0 0 0 0 0 0 0
0 0 0 0 0 0 0 0 0 0 0 0 0 0 0 0 0 0 0 0 0 0 0 0 0 0 0 0 0 0 0 0 0 0 0 0 0 0 0 0 0 0 0
0 0 0 0 0 0 0 0 0 0 0 0 0 0 0 0 0 0 0 0 0 0 0 0 0 0 0 0 0 0 0 0 0 0 0 0 0 0 0 0 0 0 0
0 0 0 0 0 0 0 0 0 0 0 0 0 0 0 0 0 0 0 0 0 0 0 0 0 0 0 0 0 0 0 0 0 0 0 0 0 0 0 0 0 0 0
Wind_Speed
5 6 6 7 7 6 5 6 4 4 4 5 7 8 8 8 7 5 4 3 1 2 1 2 3 4 4 4 4 4 2 3 7 3 2 1 3 5 6 6 7 7 8
6 6 7 7 6 7 7 6 4 4 4 4 5 6 7 8 7 6 5 4 4 5 4 3 4 4 5 5 5 4 3 4 7 7 3 3 5 5 5 6 5 6 7
7 7 8 8 8 9 9 7 5 4 3 3 3 4 6 7 7 7 7 7 8 8 7 6 5 6 6 4 5 5 5 5 5 8 5 4 5 5 5 5 5 4 5
9 7 9 10 10 10 8 7 6 4 3 2 1 2 4 5 6 7 7 7 8 8 7 6 5 5 5 5 6 7 8 8 8 8 6 4 4 4 4 3 3 3 4
9 8 9 10 9 9 8 7 6 5 4 3 2 1 3 3 4 5 5 5 6 7 7 6 5 7 7 6 7 8 8 8 7 8 6 5 4 4 3 2 2 2 3
9 9 9 9 9 9 9 8 7 6 5 5 4 1 1 1 3 5 4 3 4 5 5 5 7 9 14 15 14 11 8 8 8 6 5 5 3 2 2 2 2 2 2
8 8 9 9 9 9 8 8 8 8 7 6 5 4 2 2 4 7 6 3 3 3 4 5 5 6 8 9 12 14 12 10 8 7 7 4 3 2 3 3 2 2 2
8 8 8 8 9 8 6 8 8 6 7 7 6 6 4 3 7 9 7 4 4 3 4 5 6 5 4 8 9 10 9 8 5 5 6 4 2 2 1 2 2 2 2
9 8 7 7 8 8 7 8 7 6 7 7 6 7 6 5 11 13 10 5 5 5 4 4 5 6 7 11 11 11 10 8 11 13 12 10 10 8 3 2 2 2 2
11 9 8 7 7 8 8 8 5 7 8 8 7 7 7 7 12 15 13 7 6 4 4 5 6 7 8 9 9 10 10 6 6 8 9 10 9 10 11 5 2 2 2
10 10 10 8 7 7 6 6 6 7 7 8 8 7 7 8 13 16 15 8 8 7 5 4 4 9 11 11 9 8 9 7 7 8 7 7 6 7 7 6 5 3 3
10 11 11 9 8 6 5 5 6 7 9 9 8 7 5 6 10 13 15 13 11 8 6 4 5 10 11 11 9 11 12 8 6 7 6 5 5 5 4 5 6 7 6
11 12 12 10 8 7 7 5 4 6 8 9 9 9 7 6 7 12 14 15 14 6 6 9 10 11 11 8 10 11 8 6 6 6 5 3 2 2 2 2 4 4 5
12 12 11 9 9 8 7 5 4 4 7 9 10 10 8 7 7 7 8 9 9 8 8 10 11 10 8 8 7 6 5 5 5 5 4 3 2 3 3 3 3 4 5
12 12 10 9 8 7 7 7 7 5 5 9 11 12 13 11 12 15 13 10 10 10 10 6 4 4 4 4 4 4 4 4 4 3 4 4 3 3 3 2 2 3 4
10 10 8 7 7 6 6 6 8 9 11 16 16 14 14 16 19 19 18 18 18 19 12 8 6 6 6 6 6 4 3 4 4 4 4 4 4 4 3 2 2 3 3
10 10 7 7 7 6 5 5 6 7 10 16 18 18 15 18 20 19 18 18 20 19 9 9 8 8 7 7 6 6 5 4 4 4 4 4 4 3 3 2 2 2 2
10 12 10 7 7 6 5 5 5 6 8 6 11 16 17 19 20 19 20 16 11 9 8 10 9 8 7 7 7 6 6 6 4 4 4 4 3 3 2 2 2 2 2
8 7 7 6 6 6 5 5 5 7 8 6 7 7 11 13 16 21 20 11 14 12 8 9 9 8 8 8 8 8 8 7 6 5 5 5 4 3 2 2 2 3 2
6 10 8 6 6 6 5 5 5 7 7 7 10 10 11 10 9 11 10 10 12 12 10 9 8 8 8 8 8 8 8 7 8 6 5 5 4 4 4 4 3 3 2
5 6 8 5 5 6 5 5 6 7 6 7 9 11 17 14 13 15 13 11 12 11 10 9 8 9 8 7 8 9 11 8 8 7 6 6 5 4 4 4 4 3 3
5 5 4 5 5 5 5 5 7 7 6 9 9 10 16 11 12 13 12 11 10 10 10 9 9 8 9 9 9 10 10 9 8 8 7 7 6 5 5 5 4 4 4
5 6 5 5 5 5 6 6 6 5 5 8 10 11 12 9 11 11 12 10 9 9 8 8 8 8 7 7 8 9 11 11 10 9 9 8 7 7 6 6 7 6 6
4 4 4 4 4 5 5 5 4 3 6 9 10 11 12 11 11 11 11 9 9 9 8 8 8 11 12 9 7 8 9 9 10 9 12 10 9 8 8 7 8 9 8
4 4 4 5 5 5 4 4 3 4 7 8 9 10 11 10 10 10 9 9 10 9 10 9 7 9 12 13 11 10 10 11 10 9 9 9 10 10 10 10 8 9 9
5 5 5 5 5 5 4 4 4 6 7 8 8 9 10 10 9 9 9 9 9 8 9 8 9 11 12 11 13 12 10 11 12 11 9 9 10 10 11 10 12 10 10
Wind_Direction
266 239 226 221 222 227 235 248 262 272 293 314 323 326 330 339 343 344 338 336 353 359 322 202 179 162 153 141 133 130 143 143 123 105 75 59 85 92 85 77 67 60 49
278 254 240 233 227 232 239 244 249 267 285 305 320 327 333 345 356 4 14 28 38 36 30 72 97 104 101 105 106 108 118 119 126 123 93 69 72 74 82 73 60 58 53
303 274 258 245 235 235 238 238 236 250 277 303 321 331 339 354 16 29 40 52 55 50 43 49 60 75 73 84 103 112 108 105 104 110 96 68 71 64 75 66 56 44 46
318 292 272 260 248 241 235 230 226 227 243 267 294 327 345 4 34 46 51 59 66 60 50 52 60 78 95 109 117 121 117 110 105 105 99 81 70 59 71 69 64 37 35
325 316 295 280 265 251 237 225 215 210 214 208 207 319 353 14 57 72 67 74 78 73 59 58 78 106 114 117 121 120 119 115 110 106 101 89 70 62 66 54 77 61 54
323 324 320 309 288 263 244 222 207 200 199 195 193 207 334 43 104 131 136 118 101 96 89 75 80 86 88 86 86 87 101 116 116 108 103 101 94 87 87 81 82 71 45
308 313 320 325 317 291 260 228 212 199 193 198 195 195 221 229 169 169 168 132 107 110 119 109 94 80 88 93 81 73 67 78 112 125 122 129 134 147 133 116 106 94 78
299 304 312 321 326 316 279 244 225 202 196 199 196 195 202 221 188 174 157 114 97 83 95 116 113 93 94 106 94 80 67 58 80 95 110 110 110 146 155 131 123 100 43
294 296 303 310 315 316 299 267 239 213 204 196 190 188 189 194 177 164 147 126 104 78 63 80 104 95 100 109 104 98 87 76 76 80 80 75 67 56 66 105 98 100 73
283 282 282 285 290 300 302 288 250 223 215 199 190 187 180 177 175 163 148 136 119 104 79 69 87 103 103 105 109 112 106 96 94 83 67 54 52 47 44 51 75 100 90
270 269 266 265 267 273 288 299 272 239 217 201 192 185 179 177 175 169 154 141 141 136 127 112 97 105 99 96 98 104 118 115 98 92 82 68 57 50 45 45 47 73 86
270 270 263 258 260 268 263 288 284 254 226 204 191 180 180 174 177 177 162 150 150 145 146 134 116 107 101 102 100 110 110 101 94 88 81 66 56 48 45 55 63 67 70
270 270 267 263 259 257 250 253 279 264 238 204 192 186 182 173 181 185 170 155 152 140 144 140 130 114 100 97 104 109 106 101 97 94 91 78 55 27 35 56 49 58 66
263 265 263 260 261 261 252 237 238 262 251 213 192 189 178 170 173 173 168 151 144 132 129 128 120 108 101 102 95 86 85 98 110 110 106 96 78 68 56 57 55 46 45
259 260 254 250 253 260 255 240 232 241 256 238 207 191 179 180 186 174 164 162 160 152 139 126 122 123 119 115 106 102 104 111 108 116 122 116 99 85 70 62 69 69 59
259 257 246 243 245 247 256 263 245 251 268 252 230 199 189 181 169 170 168 163 155 149 143 150 155 159 158 155 148 137 133 130 129 136 134 128 119 108 96 78 78 85 76
249 250 239 237 237 240 247 263 273 279 268 239 206 190 178 163 161 165 163 155 152 150 151 165 169 173 171 167 165 161 159 153 149 151 143 139 133 124 119 115 119 116 100
243 244 236 232 230 231 237 250 257 277 273 214 188 181 169 163 159 152 141 134 152 168 171 174 177 178 175 176 176 171 160 156 158 161 154 150 149 146 145 143 146 140 119
234 229 227 227 227 231 237 245 252 268 264 200 157 161 162 153 147 149 151 158 169 179 181 180 178 178 181 183 183 177 171 170 170 169 169 166 165 163 163 160 150 140 132
220 230 228 221 227 237 243 249 259 265 253 194 170 158 142 136 146 166 180 172 172 179 181 180 179 179 180 181 179 176 175 175 176 180 180 178 178 179 176 174 173 168 164
212 229 240 229 224 233 241 253 265 267 240 188 168 160 162 164 165 174 186 183 179 179 181 181 180 181 180 177 176 180 183 184 185 188 187 186 184 183 180 177 180 181 173
221 219 215 220 227 234 242 254 266 260 222 174 156 154 168 169 169 174 183 188 184 181 180 180 182 183 183 180 179 182 188 191 192 192 192 192 192 187 177 179 185 186 190
209 209 213 223 229 243 253 257 255 242 187 154 150 155 172 176 172 176 182 185 183 179 174 176 178 181 186 187 185 184 188 194 197 193 191 192 195 193 186 189 192 192 202
201 206 217 232 238 243 248 250 242 203 159 150 153 161 172 175 174 177 179 180 179 176 171 175 181 185 187 189 192 196 199 196 192 195 195 195 198 198 194 196 200 205 207
217 222 232 235 232 233 239 240 217 175 157 153 157 164 172 172 171 173 172 171 170 171 175 177 178 182 190 194 196 199 198 188 188 190 194 201 205 202 200 201 203 206 209
229 227 227 222 221 224 225 219 195 170 158 155 158 163 166 168 168 167 166 168 172 175 178 181 185 186 191 198 204 201 191 189 190 190 193 200 206 209 204 208 209 208 207